Location: Im Fang
(46.6019°N, 7.2397°E)
Time: 18:51:04
(UTC+00:00)

ATLAS CENTAUR R/B - Pass Details

Date: 08 December 2019
Orbit: 454 x 694 km, 64.6° (Epoch: 20 January)

Event Time Altitude Azimuth Distance (km) Brightness Sun altitude
Exits shadow 05:57:39 - 337° (NNW) 2,330 4.1 -10.6°
Reaches altitude 10° 05:58:56 10° 347° (NNW) 1,929 3.8 -10.4°
Maximum altitude 06:02:04 19° 33° (NNE) 1,384 3.5 -9.9°
Drops below altitude 10° 06:05:01 10° 80° (E) 1,813 4.9 -9.4°
Sets 06:07:39 0° 99° (E) 2,652 6.6 -9.0°
